Hourly Data Report for May 02, 2004

TORONTO CITY
ONTARIO

43°40'00.000" N
79°24'00.000" W
112.50 m
6158355
71508
XTO

Download Data

Hourly Data (May 2004)
Hourly Data Report for May 2, 2004
TIME
LST
Temp Definition
°C
Dew Point Definition
°C
Rel Hum Definition
%
Precip. Amount Definition
mm

Wind Dir Definition
10's deg

Wind Spd Definition
km/h
Visibility Definition
km
Stn Press Definition
kPa
Hmdx Definition


Wind Chill Definition


Weather Definition


00:00 9.0 8.4 96   LegendMM LegendMM LegendMM 99.95     LegendNANA
01:00
02:00 9.4 8.5 94   LegendMM LegendMM LegendMM 99.69     LegendNANA
03:00 9.2 8.5 95   LegendMM LegendMM LegendMM 99.60     LegendNANA
04:00 9.0 8.3 95   LegendMM LegendMM LegendMM 99.51     LegendNANA
05:00 8.5 7.7 95   LegendMM LegendMM LegendMM 99.46     LegendNANA
06:00 8.3 7.4 94   LegendMM LegendMM LegendMM 99.48     LegendNANA
07:00 7.8 7.2 96   LegendMM LegendMM LegendMM 99.46     LegendNANA
08:00 7.7 7.1 96   LegendMM LegendMM LegendMM 99.39     LegendNANA
09:00 7.7 6.8 94   LegendMM LegendMM LegendMM 99.31     LegendNANA
10:00 7.6 6.6 93   LegendMM LegendMM LegendMM 99.32     LegendNANA
11:00 8.0 7.0 93   LegendMM LegendMM LegendMM 99.30     LegendNANA
12:00 8.5 7.1 91   LegendMM LegendMM LegendMM 99.27     LegendNANA
13:00 8.6 7.3 92   LegendMM LegendMM LegendMM 99.37     LegendNANA
14:00 8.0 6.7 91   LegendMM LegendMM LegendMM 99.37     LegendNANA
15:00 7.4 6.4 93   LegendMM LegendMM LegendMM 99.41     LegendNANA
16:00 7.0 5.3 89   LegendMM LegendMM LegendMM 99.53     LegendNANA
17:00 6.6 4.4 86   LegendMM LegendMM LegendMM 99.58     LegendNANA
18:00 6.1 3.7 85   LegendMM LegendMM LegendMM 99.61     LegendNANA
19:00 5.5 3.0 84   LegendMM LegendMM LegendMM 99.74     LegendNANA
20:00 4.9 2.4 84   LegendMM LegendMM LegendMM 99.89     LegendNANA
21:00 4.2 1.6 83   LegendMM LegendMM LegendMM 99.93     LegendNANA
22:00 3.8 1.0 82   LegendMM LegendMM LegendMM 100.01     LegendNANA
23:00 3.5 -0.2 77   LegendMM LegendMM LegendMM 100.05     LegendNANA

Notes on Data Quality.

Legend

  • E = Estimated
  • M = Missing
  • NA = Not Available*
  • [empty] = Indicates an unobserved value
Date modified: